COSMO-SKYMED 4 (37216 NORAD) Tracking and Keplerian Element Data

This shows tracking and keplerian element data for the satellite.

Feedback or suggestion? Click here.




ElementValue
Catalog37216
NameCOSMO-SKYMED 4
Epoch Orbit77085
Epoch Day35.14853706
Epoch Year2025
RAAN220.9597
Inclination97.8885
Eccentricity0.0001315
Argument of Perigee86.3568
Mean Anonmoly273.7795
Mean Motion14.82173029
Decay Rate1.248E-05
L11 37216U 10060A 25035.14853706 .00001248 00000+0 16320-3 0 9994
L22 37216 97.8885 220.9597 0001315 86.3568 273.7795 14.82173029770850



Live tracking and technical data element details for COSMO-SKYMED 4 (NORAD 37216). COSMO-SKYMED 4 can be tracked NOW for your location showing map with azimuth and elevation plus other details from your city location.







IsCatalogInMostPopularTable: catalog: 37216, numindb: 366
Update: records affected: 1



GetName: 37216 COSMO-SKYMED 4

Hit Count: updated at: Thu, 15 May 2025 09:57:21 GMT